Location: Moscow
(55.7500°N, 37.5830°E)
Time: 14:26:36
(UTC+03:00)

ISS - Visible Passes

Search period start: 30 January 2023 00:00
Search period end: 09 February 2023 00:00
Orbit: 413 x 419 km, 51.6° (Epoch: 30 January)

Date Brightness Start Highest point End Pass type
(mag) Time Alt. Az. Time Alt. Az. Time Alt. Az.
30 Jan -1.8 18:59:25 10° W 19:02:14 24° SSW 19:04:09 15° SSE visible
31 Jan -2.0 18:10:42 10° W 18:13:42 30° SSW 18:16:41 10° SE visible
31 Jan -0.8 19:48:32 10° WSW 19:49:40 11° SW 19:50:43 10° SSW visible
01 Feb -1.0 18:59:08 10° WSW 19:01:13 16° SSW 19:03:18 10° S visible
02 Feb -1.2 18:10:07 10° WSW 18:12:41 20° SSW 18:15:14 10° SSE visible
04 Feb -0.6 18:10:02 10° WSW 18:11:25 12° SW 18:12:49 10° SSW visible
